Tracking 18980 objects as of 22-Feb-2018
HD Live streaming from Space Station
objects crossing your sky now

FENGYUN 1C DEB

Track FENGYUN 1C DEB now!
10-day predictions


NORAD ID: 31334
Int'l Code: 1999-025BQN
Perigee: 811.8 km
Apogee: 921.5 km
Inclination: 99.1 °
Period: 102.1 minutes
Semi major axis: 7237 km
RCS: 0.0121 m2 (small)
Launch date: May 10, 1999
Source: People's Republic of China (PRC)
Launch site: Taiyaun Space Center, China (TSC)

Note: This is SATELLITE DEBRIS
aabbcc
Your satellite tracking list
Your tracking list is empty




NASA's NSSDC Master Catalog

Two Line Element Set (TLE):
1 31334U 99025BQN 18052.93846063 +.00001280 +00000-0 +73188-3 0  9995
2 31334 099.1332 084.0615 0075778 123.5897 237.2536 14.09960351555849
Source of the keplerian elements: AFSPC